This is the latest recevied weather packets stored in our database for station/object CT2FYQ-10. If no packets are shown the sender has not sent any weather packets the latest 1 day(s).
| Time | Temp. | Humidity | Pressure | Rain* | Wind** | Luminosity | Snow |
|---|---|---|---|---|---|---|---|
| 1778048825 | 13.33° C | 72% | 1015.4 hPa | - | - | - | - |
| 1778046123 | 9.44° C | 85% | 1015.3 hPa | - | - | - | - |
| 1778045222 | 8.89° C | 84% | 1015.3 hPa | - | - | - | - |
| 1778044321 | 8.89° C | 84% | 1015.2 hPa | - | - | - | - |
| 1778041619 | 8.89° C | 84% | 1015.3 hPa | - | - | - | - |
| 1778040718 | 8.89° C | 84% | 1015.4 hPa | - | - | - | - |
| 1778039817 | 8.89° C | 83% | 1015.5 hPa | - | - | - | - |
| 1778038916 | 8.89° C | 82% | 1015.5 hPa | - | - | - | - |
| 1778038015 | 9.44° C | 82% | 1015.5 hPa | - | - | - | - |
| 1778036214 | 9.44° C | 82% | 1015.4 hPa | - | - | - | - |
| 1778035313 | 9.44° C | 81% | 1015.4 hPa | - | - | - | - |
| 1778034412 | 9.44° C | 81% | 1015.4 hPa | - | - | - | - |
| 1778033511 | 9.44° C | 81% | 1015.6 hPa | - | - | - | - |
| 1778032611 | 10° C | 81% | 1015.7 hPa | - | - | - | - |
| 1778031710 | 9.44° C | 81% | 1015.8 hPa | - | - | - | - |
| 1778030809 | 10° C | 81% | 1016 hPa | - | - | - | - |
| 1778029908 | 10° C | 81% | 1016.2 hPa | - | - | - | - |
| 1778029007 | 10° C | 80% | 1016.3 hPa | - | - | - | - |
| 1778027206 | 10° C | 79% | 1016.6 hPa | - | - | - | - |
| 1778026304 | 10° C | 78% | 1016.6 hPa | - | - | - | - |
| 1778024503 | 10.56° C | 75% | 1016.8 hPa | - | - | - | - |
| 1778023602 | 10.56° C | 74% | 1016.7 hPa | - | - | - | - |
| 1778019999 | 11.11° C | 70% | 1017.2 hPa | - | - | - | - |
* Rain since midnight (hover to see other rain measurements)
** Current wind speed in m/s (hover to see current wind gust speed)